Flight Track Log - Related Links

Times and Time Zones

All times are in EDT time to prevent confusion due to time zone crossing. See the FLG3757 flight status page for this flight to view local times or setup timezone preferences in your user account.

Time Position Orientation Groundspeed Altitude Reporting Facility
EDT Latitude Longitude Course Direction KTS MPH feet Rate Location/Type
Mon 06:06:14 AM 42.1686 -75.9944 289° West 177 204 3,400  Level New York Center
Mon 06:07:14 AM 42.1822 -76.0656 285° West 201 231 5,700 2,323 Climbing New York Center
Mon 06:08:49 AM 42.2281 -76.2064 294° West 263 303 9,400 1,808 Climbing Cleveland Center
Mon 06:09:50 AM 42.2583 -76.3114 291° West 278 320 10,400 1,240 Climbing Cleveland Center
Mon 06:10:50 AM 42.2964 -76.4319 293° West 326 375 11,900 1,636 Climbing Cleveland Center
Mon 06:11:00 AM 42.2267 -76.5880 289° West  Level Estimated
Mon 06:11:51 AM 42.3319 -76.5528 292° West 346 398 13,700  Level Cleveland Center
Mon 06:12:52 AM 42.3692 -76.6758 292° West 353 406 15,000 1,240 Climbing Cleveland Center
Mon 06:13:52 AM 42.4061 -76.8022 292° West 360 414 16,200 1,190 Climbing Cleveland Center
Mon 06:14:53 AM 42.4442 -76.9292 292° West 364 419 17,400 1,279 Climbing Cleveland Center
Mon 06:15:54 AM 42.4811 -77.0567 291° West 365 420 18,800 1,279 Climbing Cleveland Center
Mon 06:16:55 AM 42.5183 -77.1839 292° West 365 420 20,000 1,082 Climbing Cleveland Center
Mon 06:17:56 AM 42.5550 -77.3119 291° West 366 421 21,000 992 Climbing Cleveland Center
Mon 06:18:56 AM 42.5925 -77.4422 291° West 370 426 22,000 992 Climbing Cleveland Center
Mon 06:19:57 AM 42.6306 -77.5764 291° West 373 429 23,000 885 Climbing Cleveland Center
Mon 06:20:58 AM 42.6350 -77.7081 273° West 351 404 23,800 836 Climbing Cleveland Center
Mon 06:21:59 AM 42.6411 -77.8525 273° West 360 414 24,700 836 Climbing Cleveland Center
Mon 06:23:00 AM 42.6458 -77.9883 273° West 360 414 25,500 787 Climbing Cleveland Center
Mon 06:24:01 AM 42.6506 -78.1244 273° West 362 417 26,300 793 Climbing Cleveland Center
Mon 06:25:01 AM 42.6550 -78.2594 273° West 360 414 27,100 744 Climbing Cleveland Center
Mon 06:26:02 AM 42.6594 -78.3947 273° West 360 414 27,800 443 Climbing Cleveland Center
Mon 06:27:03 AM 42.6628 -78.5319 272° West 364 419 28,000 98 Climbing Cleveland Center
Mon 06:28:04 AM 42.6669 -78.6767 272° West 381 438 28,000  Level Cleveland Center
Mon 06:29:05 AM 42.6722 -78.8242 273° West 389 448 28,000  Level Cleveland Center
Mon 06:30:06 AM 42.6756 -78.9731 272° West 393 452 28,000  Level Cleveland Center
Mon 06:31:07 AM 42.6800 -79.1517 272° West 394 453 28,000  Level Cleveland Center
Mon 06:32:08 AM 42.6839 -79.3014 272° West 399 459 28,000  Level Cleveland Center
Mon 06:33:09 AM 42.6861 -79.4514 271° West 399 459 28,000  Level Cleveland Center
Mon 06:34:10 AM 42.6889 -79.6017 271° West 399 459 28,000  Level Cleveland Center
Mon 06:35:11 AM 42.6931 -79.7536 272° West 402 463 28,000  Level Cleveland Center
Mon 06:36:12 AM 42.6950 -79.9058 271° West 403 464 28,000  Level Cleveland Center
Mon 06:37:13 AM 42.6953 -80.0456 270° West 398 458 28,000  Level Cleveland Center
Mon 06:38:14 AM 42.6978 -80.2253 271° West 403 464 28,000  Level Cleveland Center
Mon 06:39:15 AM 42.7006 -80.3761 271° West 399 459 28,000  Level Cleveland Center
Mon 06:40:16 AM 42.7028 -80.5250 271° West 394 453 28,000  Level Cleveland Center
Mon 06:41:18 AM 42.7047 -80.6750 271° West 395 455 28,000  Level Cleveland Center
Mon 06:42:19 AM 42.7058 -80.8261 271° West 398 458 28,000 -443 Level Cleveland Center
Mon 06:43:20 AM 42.6967 -80.9681 265° West 378 435 27,100 -934 Descending Cleveland Center
Mon 06:44:21 AM 42.6806 -81.1114 261° West 380 437 26,100 -984 Descending Cleveland Center
Mon 06:45:22 AM 42.6647 -81.2533 261° West 379 436 25,100 -984 Descending Cleveland Center
Mon 06:46:23 AM 42.6475 -81.3967 261° West 382 440 24,100 -537 Descending Cleveland Center
Mon 06:47:25 AM 42.6308 -81.5436 261° West 387 445 24,000 -537 Descending Cleveland Center
Mon 06:48:26 AM 42.6139 -81.6814 261° West 375 432 23,000 -1,574 Descending Cleveland Center
Mon 06:49:27 AM 42.5975 -81.8281 261° West 369 425 20,800 -1,918 Descending Cleveland Center
Mon 06:50:28 AM 42.5811 -81.9561 260° West 351 404 19,100 -1,756 Descending Cleveland Center
Mon 06:51:30 AM 42.5661 -82.0783 261° West 333 383 17,200 -1,659 Descending Cleveland Center
Mon 06:52:31 AM 42.5517 -82.1958 261° West 321 369 15,700 -1,583 Descending Cleveland Center
Mon 06:52:42 AM 42.5461 -82.2344 259° West 318 366 15,300 -1,556 Descending Cleveland Center
Mon 06:53:25 AM 42.5364 -82.3153 261° West 319 367 14,300 -1,320 Descending Cleveland Center
Mon 06:53:32 AM 42.5356 -82.3142 136° Southeast 320 368 14,200 -1,600 Descending Cleveland Center
Mon 06:54:25 AM 42.5197 -82.4350 260° West 312 359 12,700 -1,452 Descending Cleveland Center
Mon 06:54:34 AM 42.5211 -82.4294 71° East 315 362 12,700 -689 Level Cleveland Center
Mon 06:55:26 AM 42.5033 -82.5517 259° West 320 368 12,000 -689 Descending Cleveland Center
Mon 06:55:35 AM 42.5044 -82.5453 77° East 314 361 12,000 -1,200 Level Cleveland Center
Mon 06:56:21 AM 42.4714 -82.6492 247° West 291 335 10,900 -1,452 Descending Cleveland Center
Mon 06:56:37 AM 42.4622 -82.6697 239° Southwest 300 345 10,500 -1,169 Descending Cleveland Center
Mon 06:57:38 AM 42.4403 -82.7636 252° West 272 313 9,400 -1,120 Descending Cleveland Center
Mon 06:57:52 AM 42.4400 -82.7922 269° West 272 313 9,100 -1,200 Descending Cleveland Center
Mon 06:58:28 AM 42.4375 -82.8542 267° West 264 304 8,400 -1,277 Descending Cleveland Center
Mon 06:58:39 AM 42.4353 -82.8631 251° West 268 308 8,100 -1,433 Descending Cleveland Center
Mon 06:59:35 AM 42.4197 -82.9564 257° West 254 292 6,800 -1,355 Descending Cleveland Center
Mon 06:59:41 AM 42.4178 -82.9561 174° South 260 299 6,700 -689 Descending Cleveland Center
Mon 07:00:36 AM 42.3983 -83.0439 253° West 240 276 6,100 -689 Descending Cleveland Center
Mon 07:00:42 AM 42.3961 -83.0425 155° Southeast 247 284 6,000 -1,279 Descending Cleveland Center
Mon 07:01:37 AM 42.3753 -83.1283 252° West 239 275 4,800 -1,258 Descending Cleveland Center
Mon 07:01:44 AM 42.3753 -83.1267 90° East 241 277 4,700 -787 Descending Cleveland Center
Mon 07:02:38 AM 42.3547 -83.2072 251° West 201 231 4,000 -787 Descending Cleveland Center
Mon 07:02:45 AM 42.3542 -83.2036 102° East 227 261 3,900 -1,000 Descending Cleveland Center
Mon 07:03:32 AM 42.3194 -83.2561 228° Southwest 189 217 3,100 -885 Descending Cleveland Center
Mon 07:03:46 AM 42.3178 -83.2572 206° Southwest 202 232 3,000 -985 Descending Cleveland Center
Mon 07:04:39 AM 42.2744 -83.2950 213° Southwest 164 189 2,000 -871 Descending Cleveland Center
Mon 07:04:48 AM 42.2753 -83.2922 68° East 188 216 2,100 -716 Climbing Cleveland Center
Mon 07:05:46 AM 42.2389 -83.3211 210° Southwest 127 146 1,200 -885 Descending Cleveland Center
Mon 07:05:49 AM 42.2369 -83.3197 152° Southeast 146 168 1,200 -185 Level Cleveland Center
Mon 07:06:51 AM 42.2067 -83.3417 208° Southwest 141 162 1,000 -194 Descending Cleveland Center
Mon 07:08:00 AM 42.2000 -83.3500 236° Southwest  Level FlightAware Approximate
Mon 07:15:00 AM 42.2124 -83.3534 236° Southwest  Level Estimated

Login

Don't have an account? Register now (free) for customized features, flight alerts, and more!